TimeAST,TemperatureF,Dew PointF,Humidity,Sea Level PressureIn,VisibilityMPH,Wind Direction,Wind SpeedMPH,Gust SpeedMPH,PrecipitationIn,Events,Conditions,WindDirDegrees,DateUTC
12:00 AM,80.6,75.2,84,29.89,6.2,East,10.4,-,N/A,,Scattered Clouds,90,2012-11-19 04:00:00
1:00 AM,78.8,75.2,89,29.89,6.2,East,9.2,-,N/A,,Scattered Clouds,100,2012-11-19 05:00:00
2:00 AM,79,74,81,29.88,22,ESE,5.8,,,,Scattered Clouds,110,2012-11-19 06:00:00
2:00 AM,78.8,75.2,89,29.89,6.2,ESE,9.2,-,N/A,,Scattered Clouds,110,2012-11-19 06:00:00
3:00 AM,77.0,73.4,89,29.86,6.2,ESE,5.8,-,N/A,,Partly Cloudy,120,2012-11-19 07:00:00
4:00 AM,77.0,73.4,89,29.86,6.2,ESE,6.9,-,N/A,,Partly Cloudy,120,2012-11-19 08:00:00
5:00 AM,76,75,94,29.87,22,SE,4.6,,,,Scattered Clouds,130,2012-11-19 09:00:00
5:00 AM,77.0,75.2,94,29.86,6.2,ESE,5.8,-,N/A,,Partly Cloudy,120,2012-11-19 09:00:00
6:00 AM,75.2,73.4,94,29.86,6.2,SE,4.6,-,N/A,,Partly Cloudy,130,2012-11-19 10:00:00
7:00 AM,77.0,75.2,94,29.89,6.2,SE,3.5,-,N/A,,Scattered Clouds,140,2012-11-19 11:00:00
8:00 AM,82,76,77,29.92,31,SE,5.8,,,,Partly Cloudy,130,2012-11-19 12:00:00
8:00 AM,82.4,77.0,84,29.92,6.2,ESE,5.8,-,N/A,,Scattered Clouds,120,2012-11-19 12:00:00
9:00 AM,82.4,77.0,84,29.92,6.2,East,8.1,-,N/A,,Scattered Clouds,100,2012-11-19 13:00:00
11:00 AM,84,76,72,29.91,31,East,10.4,,,,Partly Cloudy,100,2012-11-19 15:00:00
11:00 AM,84.2,77.0,79,29.92,6.2,East,10.4,-,N/A,,Scattered Clouds,90,2012-11-19 15:00:00
12:00 PM,84.2,77.0,79,29.89,6.2,East,9.2,-,N/A,,Scattered Clouds,90,2012-11-19 16:00:00
1:00 PM,82.4,75.2,79,29.86,6.2,East,10.4,-,N/A,,Scattered Clouds,90,2012-11-19 17:00:00
2:00 PM,84.2,77.0,79,29.83,6.2,ENE,13.8,-,N/A,,Scattered Clouds,60,2012-11-19 18:00:00
3:00 PM,82.4,75.2,79,29.80,6.2,East,12.7,-,N/A,,Scattered Clouds,80,2012-11-19 19:00:00
4:00 PM,82.4,77.0,84,29.80,6.2,ENE,9.2,-,N/A,,Scattered Clouds,70,2012-11-19 20:00:00
5:00 PM,80.6,77.0,89,29.80,6.2,ENE,9.2,-,N/A,,Scattered Clouds,70,2012-11-19 21:00:00
6:00 PM,80.6,73.4,79,29.80,6.2,ESE,8.1,-,N/A,,Partly Cloudy,110,2012-11-19 22:00:00
7:00 PM,78.8,71.6,78,29.80,6.2,ESE,5.8,-,N/A,,Partly Cloudy,110,2012-11-19 23:00:00
8:00 PM,77.0,73.4,89,29.83,6.2,ESE,4.6,-,N/A,,Partly Cloudy,120,2012-11-20 00:00:00
9:00 PM,78.8,73.4,83,29.83,6.2,ESE,6.9,-,N/A,,Partly Cloudy,120,2012-11-20 01:00:00
10:00 PM,78.8,75.2,89,29.83,6.2,East,9.2,-,N/A,,Partly Cloudy,100,2012-11-20 02:00:00
11:00 PM,79,75,84,29.85,31,ESE,6.9,,,,Scattered Clouds,110,2012-11-20 03:00:00
11:00 PM,78.8,75.2,89,29.83,6.2,East,9.2,-,N/A,,Partly Cloudy,100,2012-11-20 03:00:00